Location: Newark
(45.8667°N, 9.7333°E)
Time: 12:34:34
(UTC+00:00)

NOAA 18 - Visible Passes

Search period start: 18 February 2020 00:00
Search period end: 28 February 2020 00:00
Orbit: 841 x 861 km, 99.1° (Epoch: 17 February)

Date Brightness Start Highest point End Pass type
(mag) Time Alt. Az. Time Alt. Az. Time Alt. Az.
18 Feb 7.0 17:52:36 12° ENE 17:53:18 12° NE 17:55:19 10° NNE visible
18 Feb 5.9 19:34:36 44° N 19:34:36 44° N 19:38:28 10° N visible
18 Feb 7.8 21:16:36 15° WNW 21:16:36 15° WNW 21:18:01 10° NW visible
19 Feb 5.8 19:22:32 43° NNE 19:22:32 43° NNE 19:26:36 10° N visible
19 Feb 7.6 21:04:32 19° WNW 21:04:32 19° WNW 21:06:38 10° NW visible
20 Feb 5.8 19:10:28 39° NE 19:10:28 39° NE 19:14:43 10° N visible
20 Feb 7.3 20:52:28 23° WNW 20:52:28 23° WNW 20:55:08 10° NW visible
21 Feb 5.9 18:58:23 34° NE 18:58:23 34° NE 19:02:47 10° N visible
21 Feb 7.0 20:40:23 29° NW 20:40:23 29° NW 20:43:33 10° NNW visible
22 Feb 6.1 18:46:19 29° ENE 18:46:19 29° ENE 18:50:48 10° N visible
22 Feb 6.6 20:28:19 35° NW 20:28:19 35° NW 20:31:54 10° NNW visible
23 Feb 6.3 18:34:15 24° ENE 18:34:27 24° ENE 18:38:46 10° N visible
23 Feb 6.2 20:16:15 44° NW 20:16:15 44° NW 20:20:12 10° NNW visible
24 Feb 6.5 18:22:11 19° ENE 18:22:49 20° ENE 18:26:40 10° NNE visible
24 Feb 5.8 20:04:11 53° NW 20:04:11 53° NW 20:08:28 10° NNW visible
25 Feb 6.7 18:10:07 15° ENE 18:11:12 16° NE 18:14:28 10° NNE visible
25 Feb 5.5 19:52:07 62° NNW 19:52:07 62° NNW 19:56:41 10° NNW visible
25 Feb 8.0 21:34:07 12° WNW 21:34:07 12° WNW 21:35:13 10° WNW visible
26 Feb 6.9 17:58:03 12° ENE 17:59:36 13° NE 18:02:05 10° NNE visible
26 Feb 5.3 19:40:03 64° NNE 19:40:03 64° NNE 19:44:53 10° N visible
26 Feb 7.7 21:22:03 16° WNW 21:22:03 16° WNW 21:24:09 10° NW visible
27 Feb 7.1 17:46:52 10° ENE 17:48:02 11° NE 17:49:12 10° NE visible
27 Feb 5.3 19:27:59 57° NE 19:27:59 57° NE 19:33:02 10° N visible
27 Feb 7.4 21:09:59 20° WNW 21:09:59 20° WNW 21:12:51 10° NW visible
